Flag for U.S.A. Weather past 2 weeks in Newport News, Virginia, U.S.A.

Now
59 °F

Clear.


Feels Like: 57 °F
Forecast: 45 / 64 °F
Wind: 9 mph from North

Location: Newport News / Williamsburg International Airport


UV Index: 7 (High)

Visibility: 10 mi


Pressure: 29.93 "Hg

Humidity: 39%

Dew point: 34 °F

Location of Newport NewsLocation

Historic Weather in Newport News

°F

Newport News temperature yesterday

Maximum temperature yesterday: 85 °F (at 3:54 PM)
Minimum temperature yesterday: 46 °F (at 3:54 AM)
Average temperature yesterday: 66 °F

Past Weeks' High & Low Weather Summary

 TemperatureHumidityPressure
High85 °F (Apr 13, 2:54 PM)89% (Apr 22, 3:54 AM)30.61 "Hg (Apr 22, 3:54 AM)
Low37 °F (Apr 16, 5:54 AM)23% (Apr 10, 12:54 PM)29.59 "Hg (Apr 15, 4:54 PM)
Average61 °F57%30.10 "Hg
* Reported Apr 8 8:54 PM — Apr 23 8:54 PM, Newport News, Weather by CustomWeather, © 2014

Note: Actual official high and low records may vary slightly from our data, if they occured in-between our weather recording intervals... More about our weather records

Advertising

Historic Weather Conditions — Data for Previous 24 hours

 ConditionsComfort  
Time TempWeatherWind HumidityBarometerVisibility
8:54 PM
Apr 23
58 °FClear.7 mph44%29.90 "Hg10 mi
7:54 PM63 °FSunny.9 mph34%29.85 "Hg10 mi
6:54 PM66 °FSunny.10 mph31%29.83 "Hg10 mi
5:54 PM68 °FSunny.16 mph26%29.82 "Hg10 mi
4:54 PM69 °FSunny.22 mph24%29.80 "Hg10 mi
3:54 PM70 °FSunny.17 mph25%29.78 "Hg10 mi
2:54 PM70 °FScattered clouds.18 mph25%29.78 "Hg10 mi
1:54 PM68 °FPassing clouds.18 mph26%29.78 "Hg10 mi
12:54 PM68 °FSunny.18 mph26%29.79 "Hg10 mi
11:54 AM67 °FSunny.13 mph30%29.78 "Hg10 mi
10:54 AM66 °FSunny.12 mph31%29.78 "Hg10 mi
9:54 AM62 °FSunny.17 mph35%29.78 "Hg10 mi
8:54 AM61 °FSunny.22 mph38%29.76 "Hg10 mi
7:54 AM59 °FSunny.15 mph42%29.75 "Hg10 mi
6:54 AM57 °FPassing clouds.12 mph47%29.72 "Hg10 mi
5:54 AM59 °FPassing clouds.10 mph51%29.69 "Hg10 mi
4:54 AM62 °FClear.12 mph67%29.67 "Hg10 mi
3:54 AM64 °FPassing clouds.12 mph65%29.64 "Hg10 mi
2:54 AM65 °FClear.10 mph68%29.62 "Hg10 mi
1:54 AM66 °FPassing clouds.6 mph70%29.61 "Hg10 mi
12:54 AM67 °FPassing clouds.6 mph66%29.62 "Hg10 mi
11:54 PM
Apr 22
68 °FPassing clouds.7 mph63%29.62 "Hg10 mi
10:54 PM67 °FOvercast.No wind61%29.62 "Hg10 mi
Weather by CustomWeather, © 2014

See weather overview